Location: Catstown
(52.4386°N, 7.2633°W)
Time: 00:26:05
(UTC+00:00)

NOSS 3-4 (A) - Visible Passes

Search period start: 24 January 2021 00:00
Search period end: 03 February 2021 00:00
Orbit: 879 x 1333 km, 63.4° (Epoch: 22 January)

Date Brightness Start Highest point End Pass type
(mag) Time Alt. Az. Time Alt. Az. Time Alt. Az.
24 Jan 4.6 18:38:39 10° WNW 18:44:15 34° NNW 18:48:49 16° NE visible
24 Jan 4.6 20:30:53 10° NW 20:36:15 36° N 20:36:15 36° N visible
24 Jan 5.8 22:22:01 10° NW 22:23:41 19° NW 22:23:41 19° NW visible
25 Jan 4.4 17:53:21 10° W 17:59:03 39° NNW 18:05:16 10° NE visible
25 Jan 4.6 19:45:50 10° NW 19:51:34 33° N 19:52:58 31° NNE visible
25 Jan 5.1 21:37:13 10° NW 21:40:24 30° NNW 21:40:24 30° NNW visible
26 Jan 4.6 19:00:41 10° WNW 19:06:18 32° N 19:09:41 21° NE visible
26 Jan 4.5 20:52:23 10° NW 20:57:07 40° N 20:57:07 40° N visible
26 Jan 6.0 22:43:18 10° NW 22:44:34 17° NW 22:44:34 17° NW visible
27 Jan 4.6 18:15:26 10° WNW 18:21:01 33° N 18:26:25 13° NE visible
27 Jan 4.3 20:07:29 10° NW 20:13:33 39° NNE 20:13:51 39° NNE visible
27 Jan 5.3 21:58:30 10° NW 22:01:18 28° NW 22:01:18 28° NW visible
28 Jan 4.5 19:22:29 10° NW 19:28:20 35° NNE 19:30:37 28° NE visible
28 Jan 4.6 21:13:42 10° NW 21:18:03 43° NNW 21:18:03 43° NNW visible
28 Jan 6.2 23:04:44 10° NW 23:05:30 14° NW 23:05:30 14° NW visible
29 Jan 4.6 18:37:24 10° WNW 18:43:04 33° N 18:47:23 18° ENE visible
29 Jan 4.1 20:28:53 10° NW 20:34:50 51° NNE 20:34:50 51° NNE visible
29 Jan 5.6 22:19:49 10° NW 22:22:16 24° NW 22:22:16 24° NW visible
30 Jan 4.6 17:52:12 10° WNW 17:57:46 32° N 18:03:54 10° ENE visible
30 Jan 4.2 19:44:01 10° NW 19:50:16 43° NNE 19:51:38 39° NE visible
30 Jan 4.7 21:34:58 10° NW 21:39:05 41° NW 21:39:05 41° NW visible
31 Jan 4.4 18:59:05 10° NW 19:05:05 37° NNE 19:08:29 24° ENE visible
31 Jan 3.9 20:50:11 10° NW 20:55:56 65° NNW 20:55:56 65° NNW visible
31 Jan 5.8 22:41:21 10° NW 22:43:23 19° WNW 22:43:23 19° WNW visible
01 Feb 4.5 18:14:03 10° NW 18:19:50 34° N 18:25:21 13° ENE visible
01 Feb 3.8 20:05:23 10° NW 20:11:59 60° NE 20:12:49 56° ENE visible
01 Feb 5.1 21:56:22 10° NW 22:00:17 34° WNW 22:00:17 34° WNW visible
02 Feb 4.1 19:20:33 10° NW 19:26:56 48° NNE 19:29:46 33° E visible
02 Feb 4.1 21:11:29 10° NW 21:17:13 61° W 21:17:13 61° W visible
02 Feb 6.1 23:03:30 10° WNW 23:04:41 14° WNW 23:04:41 14° WNW visible
